Weather in Zamberk

Czech Republic     50°05′12″N   16°27′47″E
В апреле 2022 года жителям России запретили посещать сайт meteo.paraplan.net по решению Генеральной прокуратуры. Аудитория сайта уменьшилась в 10 раз. Владельцы сайта не видят смысла в поддержке погодного сервера в таких условиях. Сайт будет закрыт в октябре.
temp.,
°C
wind,
m/s
gust,
m/s
humid.,
%
clouds,
%
prec.,
mm/h
press.,
hPa
HPBL,
m
4 october, tue
tue423:00+7wnw5119416 0.1 1022351
02:00+9wnw5119391 0.3 1021551
05:00+8wnw6119590 0.1 1020535
08:00+8wnw5119586 0.3 1021511
11:00+12nw6770100 0.1 10221256
14:00+12wnw566578 0.1 10221052
17:00+12wnw55686 0.0 1023828
20:00+8w11885 0.0 102410
5 october, wed
wed523:00+7se11895 0.0 102512
02:00+7se228999 0.0 102523
05:00+6se3492100 0.0 102561
08:00+7ese3690100 0.0 1025162
11:00+11sse5773100 0.0 1024413
14:00+15sse575999 0.0 1023615
17:00+14sse5968100 0.0 1022474
20:00+10se3686100 0.0 1023104
6 october, thu
thu623:00+9se3691100 0.0 1024132
02:00+8se3593100 0.0 102590
05:00+8se339346 0.0 102549
08:00+9se338894 0.0 102671
11:00+15w4768100 0.0 1027647
14:00+16wnw687096 0.0 10281128
17:00+15nw57685 0.1 1029638
20:00+9nw228178 0.1 103211
7 october, fri
fri723:00+8nne118153 0.0 103310
02:00+7e11855 0.0 103210
05:00+7e11875 0.0 103110
08:00+7e118715 0.0 103013
11:00+14se355415 0.0 1028485
14:00+16sse45555 0.0 1025830
17:00+16sse356512 0.0 1023309
20:00+11se33863 0.0 102331
8 october, sat
sat823:00+10se349021 0.0 102358
02:00+10se349379 0.0 102265
05:00+9sse2294100 0.0 102224
08:00+9ssw119457 0.0 102213
11:00+13wnw468194 0.0 1023689
14:00+16wnw57495 0.1 10221122
17:00+14wnw46595 0.0 1022496
20:00+10n11765 0.0 102311